Location: Darmstadt
(49.8706°N, 8.6494°E)
Time: 07:18:18
(UTC+01:00)

Cosmos 1689 Rocket - Pass Details

Date: 31 October 2020
Orbit: 360 x 374 km, 97.5° (Epoch: 02 December)

Event Time Altitude Azimuth Distance (km) Brightness Sun altitude
Exits shadow 18:51:51 22° 7° (N) 848 3.7 -17.8°
Maximum altitude 18:53:31 74° 286° (WNW) 382 2.1 -18.1°
Drops below altitude 10° 18:56:22 10° 200° (SSW) 1,343 5.1 -18.6°
Sets 18:58:17 0° 199° (SSW) 2,185 6.1 -18.9°
